TimeCDT,TemperatureF,Dew PointF,Humidity,Sea Level PressureIn,VisibilityMPH,Wind Direction,Wind SpeedMPH,Gust SpeedMPH,PrecipitationIn,Events,Conditions,WindDirDegrees,DateUTC
12:54 AM,73.9,72.0,93,30.02,10.0,SE,3.5,-,N/A,,Clear,140,2013-07-07 05:54:00
1:54 AM,73.9,72.0,93,30.01,10.0,SE,4.6,-,N/A,,Clear,140,2013-07-07 06:54:00
2:20 AM,73.4,71.6,94,30.03,10.0,SE,4.6,-,N/A,,Mostly Cloudy,140,2013-07-07 07:20:00
2:27 AM,73.4,71.6,94,30.03,10.0,SE,4.6,-,N/A,,Scattered Clouds,130,2013-07-07 07:27:00
2:41 AM,73.4,71.6,94,30.03,10.0,SE,3.5,-,N/A,,Scattered Clouds,140,2013-07-07 07:41:00
2:49 AM,73.4,71.6,94,30.03,10.0,SE,4.6,-,N/A,,Partly Cloudy,140,2013-07-07 07:49:00
2:54 AM,73.0,71.1,93,30.01,10.0,SE,4.6,-,N/A,,Scattered Clouds,140,2013-07-07 07:54:00
3:12 AM,73.4,71.6,94,30.03,10.0,SE,5.8,-,N/A,,Mostly Cloudy,130,2013-07-07 08:12:00
3:54 AM,73.9,71.1,91,30.02,10.0,SE,4.6,-,N/A,,Overcast,130,2013-07-07 08:54:00
4:18 AM,73.4,71.6,94,30.04,10.0,SE,4.6,-,0.01,,Overcast,140,2013-07-07 09:18:00
4:54 AM,73.9,71.1,91,30.03,10.0,Calm,Calm,-,0.01,,Overcast,0,2013-07-07 09:54:00
5:54 AM,73.0,71.1,93,30.03,10.0,ESE,3.5,-,N/A,,Overcast,110,2013-07-07 10:54:00
6:54 AM,73.9,71.1,91,30.04,6.0,SE,3.5,-,N/A,,Mostly Cloudy,140,2013-07-07 11:54:00
7:54 AM,75.9,71.1,85,30.06,10.0,SE,5.8,-,N/A,,Overcast,140,2013-07-07 12:54:00
8:54 AM,75.9,70.0,82,30.08,10.0,SSE,8.1,-,N/A,,Overcast,160,2013-07-07 13:54:00
9:50 AM,77.0,69.8,78,30.10,10.0,Calm,Calm,-,N/A,,Overcast,0,2013-07-07 14:50:00
9:54 AM,78.1,70.0,76,30.08,10.0,Calm,Calm,-,N/A,,Overcast,0,2013-07-07 14:54:00
10:54 AM,81.0,70.0,69,30.08,10.0,Calm,Calm,-,N/A,,Overcast,0,2013-07-07 15:54:00
11:15 AM,80.6,69.8,70,30.09,10.0,Variable,3.5,-,N/A,,Overcast,0,2013-07-07 16:15:00
11:54 AM,82.0,70.0,67,30.07,10.0,Calm,Calm,-,N/A,,Overcast,0,2013-07-07 16:54:00
12:54 PM,86.0,70.0,59,30.06,10.0,Calm,Calm,-,N/A,,Scattered Clouds,0,2013-07-07 17:54:00
1:54 PM,86.0,71.1,61,30.04,10.0,South,4.6,-,N/A,,Scattered Clouds,190,2013-07-07 18:54:00
2:54 PM,87.1,70.0,57,30.03,10.0,Calm,Calm,-,N/A,,Overcast,0,2013-07-07 19:54:00
3:54 PM,91.0,71.1,52,30.02,10.0,Variable,3.5,-,N/A,,Mostly Cloudy,0,2013-07-07 20:54:00
4:54 PM,88.0,70.0,55,30.01,10.0,Calm,Calm,-,N/A,,Scattered Clouds,0,2013-07-07 21:54:00
5:54 PM,87.1,72.0,61,30.00,10.0,NE,5.8,-,N/A,,Scattered Clouds,50,2013-07-07 22:54:00
6:54 PM,84.9,73.9,69,30.02,10.0,East,4.6,-,N/A,,Overcast,100,2013-07-07 23:54:00
7:54 PM,82.9,75.0,77,30.04,10.0,SSE,5.8,-,N/A,,Mostly Cloudy,150,2013-07-08 00:54:00
8:54 PM,78.1,72.0,81,30.06,10.0,South,9.2,-,N/A,,Overcast,180,2013-07-08 01:54:00
9:54 PM,77.0,73.0,88,30.08,10.0,South,8.1,-,N/A,,Overcast,170,2013-07-08 02:54:00
10:11 PM,75.2,71.6,89,30.10,10.0,South,10.4,-,N/A,,Mostly Cloudy,180,2013-07-08 03:11:00
10:54 PM,75.9,72.0,87,30.09,10.0,South,6.9,-,N/A,,Scattered Clouds,170,2013-07-08 03:54:00
11:01 PM,75.2,71.6,89,30.11,10.0,South,6.9,-,N/A,,Mostly Cloudy,170,2013-07-08 04:01:00
11:19 PM,75.2,71.6,89,30.10,10.0,SSE,6.9,-,N/A,,Scattered Clouds,160,2013-07-08 04:19:00
11:54 PM,75.9,72.0,87,30.09,10.0,South,11.5,-,N/A,,Clear,170,2013-07-08 04:54:00